When you browse on this site, cookies collect data to enhance your experience and personalize the content and advertising you see.
Visit our Privacy Policy to learn more. By continuing to use the site, you agree to this use of cookies and data.
  • în România
  • Lista ţărilor
  • Pe 7 zile
  • Temperatura apei
  • Hartă satelitară
  • Meteo pe hartă
  • Widget-uri
  • user-avatar
    Intrare

    Meteo pe oră la Les Pavillons-sous-Bois

    Astăzi, 26 Iunie, Miercuri

    Timp Temperatura Precipitaţii Vânt Presiune Umiditate
    00:00 +24°C° 0 mm 2 m/s 760 mmHg 82%
    01:00 +22°C° 0 mm 3 m/s 760 mmHg 84%
    02:00 +22°C° 0 mm 3 m/s 760 mmHg 86%
    03:00 +22°C° 0 mm 3 m/s 760 mmHg 88%
    04:00 +22°C° 0 mm 3 m/s 760 mmHg 87%
    05:00 +22°C° 0 mm 4 m/s 760 mmHg 86%
    06:00 +23°C° 0 mm 4 m/s 761 mmHg 83%
    07:00 +25°C° 0 mm 4 m/s 760 mmHg 79%
    08:00 +27°C° 0 mm 4 m/s 760 mmHg 74%
    09:00 +28°C° 0 mm 4 m/s 760 mmHg 70%
    10:00 +30°C° 0 mm 4 m/s 760 mmHg 67%
    11:00 +32°C° 0 mm 5 m/s 760 mmHg 63%
    12:00 +33°C° 0 mm 5 m/s 761 mmHg 60%
    13:00 +34°C° 0 mm 5 m/s 760 mmHg 59%
    14:00 +35°C° 0 mm 5 m/s 760 mmHg 59%
    15:00 +35°C° 0 mm 5 m/s 759 mmHg 58%
    16:00 +34°C° 0 mm 5 m/s 759 mmHg 62%
    17:00 +34°C° 0 mm 5 m/s 759 mmHg 65%
    18:00 +33°C° 0 mm 5 m/s 759 mmHg 68%
    19:00 +30°C° 0 mm 5 m/s 760 mmHg 70%
    20:00 +29°C° 0 mm 5 m/s 760 mmHg 73%
    21:00 +27°C° 0 mm 6 m/s 760 mmHg 76%
    22:00 +26°C° 0 mm 5 m/s 761 mmHg 77%
    23:00 +26°C° 0 mm 5 m/s 761 mmHg 79%

    Mâine, 27 Iunie, Joi

    Timp Temperatura Precipitaţii Vânt Presiune Umiditate
    00:00 +25°C° 0 mm 5 m/s 761 mmHg 80%
    01:00 +23°C° 0 mm 5 m/s 761 mmHg 83%
    02:00 +23°C° 0 mm 5 m/s 761 mmHg 85%
    03:00 +22°C° 0 mm 5 m/s 761 mmHg 87%
    04:00 +22°C° 0 mm 5 m/s 761 mmHg 86%
    05:00 +22°C° 0 mm 5 m/s 761 mmHg 84%
    06:00 +22°C° 0 mm 5 m/s 761 mmHg 82%
    07:00 +25°C° 0 mm 5 m/s 761 mmHg 78%
    08:00 +26°C° 0 mm 5 m/s 761 mmHg 74%
    09:00 +27°C° 0 mm 5 m/s 762 mmHg 70%
    10:00 +29°C° 0 mm 5 m/s 761 mmHg 67%
    11:00 +30°C° 0 mm 5 m/s 761 mmHg 64%
    12:00 +32°C° 0 mm 5 m/s 761 mmHg 61%
    13:00 +33°C° 0 mm 5 m/s 761 mmHg 60%
    14:00 +33°C° 0 mm 5 m/s 761 mmHg 59%
    15:00 +33°C° 0 mm 6 m/s 761 mmHg 58%
    16:00 +32°C° 0 mm 6 m/s 761 mmHg 60%
    17:00 +29°C° 0 mm 6 m/s 761 mmHg 61%
    18:00 +28°C° 0 mm 6 m/s 760 mmHg 62%
    19:00 +27°C° 0 mm 5 m/s 761 mmHg 62%
    20:00 +25°C° 0 mm 5 m/s 761 mmHg 61%
    21:00 +23°C° 0 mm 5 m/s 761 mmHg 60%
    22:00 +22°C° 0 mm 5 m/s 761 mmHg 61%
    23:00 +21°C° 0 mm 5 m/s 761 mmHg 61%

    Poimâine, 28 Iunie, Vineri

    Timp Temperatura Precipitaţii Vânt Presiune Umiditate
    00:00 +21°C° 0 mm 4 m/s 761 mmHg 62%
    01:00 +20°C° 0 mm 4 m/s 761 mmHg 65%
    02:00 +19°C° 0 mm 4 m/s 761 mmHg 67%
    03:00 +18°C° 0 mm 4 m/s 760 mmHg 70%
    04:00 +19°C° 0 mm 4 m/s 760 mmHg 69%
    05:00 +19°C° 0 mm 4 m/s 760 mmHg 69%
    06:00 +19°C° 0 mm 4 m/s 760 mmHg 69%
    07:00 +21°C° 0 mm 4 m/s 760 mmHg 66%
    08:00 +23°C° 0 mm 4 m/s 760 mmHg 62%
    09:00 +25°C° 0 mm 4 m/s 760 mmHg 59%
    10:00 +27°C° 0 mm 4 m/s 760 mmHg 55%
    11:00 +28°C° 0 mm 4 m/s 760 mmHg 52%
    12:00 +30°C° 0 mm 4 m/s 760 mmHg 48%
    13:00 +30°C° 0 mm 4 m/s 759 mmHg 48%
    14:00 +30°C° 0 mm 4 m/s 759 mmHg 48%
    15:00 +32°C° 0 mm 4 m/s 759 mmHg 48%
    16:00 +30°C° 0 mm 4 m/s 759 mmHg 52%
    17:00 +29°C° 0 mm 4 m/s 758 mmHg 55%
    18:00 +29°C° 0 mm 4 m/s 758 mmHg 59%
    19:00 +27°C° 0 mm 3 m/s 758 mmHg 62%
    20:00 +25°C° 0 mm 3 m/s 758 mmHg 66%
    21:00 +24°C° 0 mm 3 m/s 759 mmHg 69%
    22:00 +22°C° 0 mm 3 m/s 758 mmHg 68%
    23:00 +21°C° 0 mm 3 m/s 758 mmHg 67%

    29 Iunie, Sâmbătă

    Timp Temperatura Precipitaţii Vânt Presiune Umiditate
    00:00 +21°C° 0 mm 3 m/s 758 mmHg 65%
    01:00 +20°C° 0 mm 2 m/s 758 mmHg 65%
    02:00 +19°C° 0 mm 2 m/s 757 mmHg 65%
    03:00 +19°C° 0 mm 2 m/s 757 mmHg 65%
    04:00 +19°C° 0 mm 2 m/s 757 mmHg 65%
    05:00 +20°C° 0 mm 3 m/s 757 mmHg 64%
    06:00 +20°C° 0 mm 3 m/s 757 mmHg 63%
    07:00 +22°C° 0 mm 3 m/s 757 mmHg 59%
    08:00 +25°C° 0 mm 3 m/s 757 mmHg 55%
    09:00 +27°C° 0 mm 3 m/s 757 mmHg 52%
    10:00 +28°C° 0 mm 3 m/s 756 mmHg 49%
    11:00 +30°C° 0 mm 3 m/s 756 mmHg 46%
    12:00 +31°C° 0 mm 3 m/s 756 mmHg 43%
    13:00 +33°C° 0 mm 3 m/s 755 mmHg 43%
    14:00 +33°C° 0 mm 3 m/s 755 mmHg 43%
    15:00 +34°C° 0 mm 3 m/s 755 mmHg 42%
    16:00 +33°C° 0 mm 3 m/s 755 mmHg 46%
    17:00 +32°C° 0 mm 2 m/s 754 mmHg 50%
    18:00 +31°C° 0 mm 2 m/s 754 mmHg 54%
    19:00 +29°C° 0 mm 2 m/s 754 mmHg 58%
    20:00 +28°C° 0 mm 2 m/s 754 mmHg 63%
    21:00 +26°C° 0 mm 2 m/s 755 mmHg 67%
    22:00 +26°C° 0 mm 2 m/s 755 mmHg 69%
    23:00 +25°C° 0 mm 2 m/s 755 mmHg 71%

    30 Iunie, Duminică

    Timp Temperatura Precipitaţii Vânt Presiune Umiditate
    00:00 +24°C° 0 mm 1 m/s 755 mmHg 73%
    01:00 +24°C° 0 mm 2 m/s 755 mmHg 77%
    02:00 +23°C° 0 mm 2 m/s 755 mmHg 82%
    03:00 +21°C° 0 mm 2 m/s 755 mmHg 86%
    04:00 +21°C° 0 mm 3 m/s 756 mmHg 86%
    05:00 +21°C° 0 mm 3 m/s 756 mmHg 86%
    06:00 +21°C° 0 mm 3 m/s 756 mmHg 86%
    07:00 +24°C° 0 mm 3 m/s 757 mmHg 77%
    08:00 +25°C° 0 mm 3 m/s 757 mmHg 67%
    09:00 +26°C° 0 mm 3 m/s 758 mmHg 57%
    10:00 +27°C° 0 mm 3 m/s 758 mmHg 52%
    11:00 +28°C° 0 mm 3 m/s 758 mmHg 47%
    12:00 +29°C° 0 mm 3 m/s 758 mmHg 41%
    13:00 +29°C° 0 mm 3 m/s 758 mmHg 40%
    14:00 +30°C° 0 mm 3 m/s 758 mmHg 40%
    15:00 +30°C° 0 mm 3 m/s 758 mmHg 39%
    16:00 +29°C° 0 mm 3 m/s 758 mmHg 44%
    17:00 +28°C° 0 mm 3 m/s 758 mmHg 49%
    18:00 +27°C° 0 mm 3 m/s 759 mmHg 54%
    19:00 +25°C° 0 mm 3 m/s 759 mmHg 60%
    20:00 +24°C° 0 mm 3 m/s 759 mmHg 66%
    21:00 +21°C° 0 mm 3 m/s 759 mmHg 72%
    22:00 +20°C° 0 mm 2 m/s 759 mmHg 73%
    23:00 +19°C° 0 mm 2 m/s 759 mmHg 75%

    1 Iulie, Luni

    Timp Temperatura Precipitaţii Vânt Presiune Umiditate
    00:00 +18°C° 0 mm 2 m/s 759 mmHg 76%
    01:00 +18°C° 0 mm 2 m/s 759 mmHg 74%
    02:00 +17°C° 0 mm 2 m/s 759 mmHg 73%
    03:00 +16°C° 0 mm 2 m/s 759 mmHg 71%
    04:00 +17°C° 0 mm 2 m/s 759 mmHg 69%
    05:00 +17°C° 0 mm 2 m/s 759 mmHg 67%
    06:00 +19°C° 0 mm 1 m/s 760 mmHg 65%
    07:00 +19°C° 0 mm 2 m/s 760 mmHg 61%
    08:00 +21°C° 0 mm 2 m/s 760 mmHg 57%
    09:00 +23°C° 0 mm 2 m/s 760 mmHg 53%
    10:00 +24°C° 0 mm 2 m/s 760 mmHg 49%
    11:00 +26°C° 0 mm 1 m/s 760 mmHg 46%
    12:00 +27°C° 0 mm 1 m/s 760 mmHg 42%
    13:00 +27°C° 0 mm 2 m/s 760 mmHg 43%
    14:00 +27°C° 0 mm 2 m/s 760 mmHg 45%
    15:00 +28°C° 0 mm 3 m/s 760 mmHg 47%
    16:00 +27°C° 0 mm 3 m/s 760 mmHg 52%
    17:00 +25°C° 0 mm 4 m/s 759 mmHg 57%
    18:00 +23°C° 0 mm 5 m/s 759 mmHg 63%
    19:00 +22°C° 0 mm 4 m/s 760 mmHg 66%
    20:00 +20°C° 0 mm 4 m/s 760 mmHg 69%
    21:00 +18°C° 0 mm 3 m/s 761 mmHg 72%
    22:00 +17°C° 0 mm 3 m/s 761 mmHg 76%
    23:00 +17°C° 0 mm 3 m/s 761 mmHg 80%
    Arată mai mult